Wilmington, DE

6:44 AM EST on December 13, 2019 (GMT -0500)
New Castle County

Weather History for KILG - September, 2019

Change the Weather History Date:

Monday, September 16, 2019

  Actual Average Record
Temperature  
Mean Temperature 74 °F 68 °F  
Max Temperature 86 °F 78 °F 94 °F (1970)
Min Temperature 62 °F 58 °F 40 °F (1984)
Degree Days  
Heating Degree Days 0 1  
Month to date heating degree days 1 9  
Since 1 July heating degree days 1 11  
Cooling Degree Days 9 4  
Month to date cooling degree days 146 96  
Year to date cooling degree days 1376 1089  
Growing Degree Days 24 (Base 50)    
Moisture  
Dew Point 62 °F    
Average Humidity 69    
Maximum Humidity 93    
Minimum Humidity 44    
Precipitation  
Precipitation 0.00 in 0.15 in 8.29 in (1999)
Month to date precipitation 0.29 2.11  
Year to date precipitation 36.41 30.87  
Snow  
Snow 0.00 in 0.00 in 0.00 in (1894)
Month to date snowfall 0.0 0.0  
Since 1 July snowfall 0.0 0.0  
Since 1 September snowfall 0.0 0.0  
Snow Depth 0.00 in    
Sea Level Pressure  
Sea Level Pressure 30.04 in    
Wind  
Wind Speed 4 mph (SE)    
Max Wind Speed 10 mph    
Max Gust Speed 13 mph    
Visibility 10 miles    
Events      
T = Trace of Precipitation, MM = Missing Value Source: NWS Daily Summary

Daily Weather History Graph

Daily Weather History Graph

Search for Another Location

Airport or City:

Astronomy

Sep. 16, 2019 Rise Set
Actual Time 6:44 AM EDT 7:09 PM EDT
Civil Twilight 6:17 AM EDT 7:36 PM EDT
Nautical Twilight 5:45 AM EDT 8:08 PM EDT
Astronomical Twilight 5:12 AM EDT 8:40 PM EDT
Moon 8:43 PM EDT (9/16) 8:48 AM EDT (9/16)
Length of Visible Light 13h 19m
Length of Day
12h 25m
Waning Gibbous, 94% of the Moon is Illuminated
Sep 16
Waning Gibbous
Sep 21
Last Quarter
Sep 28
New
Oct 5
First Quarter
Oct 13
Full

Hourly Weather History & Observations

Time (EDT) Temp. Heat Index Dew Point Humidity Pressure Visibility Wind Dir Wind Speed Gust Speed Precip Events Conditions
12:51 AM 66.9 °F - 60.1 °F 79% 30.09 in 10.0 mi Calm Calm - N/A   Scattered Clouds
1:51 AM 64.9 °F - 60.1 °F 84% 30.09 in 10.0 mi Calm Calm - N/A   Clear
2:51 AM 64.0 °F - 60.1 °F 87% 30.08 in 10.0 mi Calm Calm - N/A   Clear
3:51 AM 63.0 °F - 60.1 °F 90% 30.08 in 10.0 mi Calm Calm - N/A   Clear
4:51 AM 64.0 °F - 61.0 °F 90% 30.07 in 10.0 mi NNW 4.6 mph - N/A   Overcast
5:51 AM 64.9 °F - 61.0 °F 87% 30.07 in 10.0 mi NNW 3.5 mph - N/A   Overcast
6:27 AM 63.0 °F - 60.1 °F 90% 30.08 in 10.0 mi NNW 4.6 mph - N/A   Scattered Clouds
6:51 AM 64.9 °F - 62.1 °F 90% 30.08 in 10.0 mi NNW 3.5 mph - N/A   Overcast
7:51 AM 68.0 °F - 62.1 °F 81% 30.09 in 10.0 mi Calm Calm - N/A   Partly Cloudy
8:51 AM 75.0 °F - 61.0 °F 62% 30.09 in 10.0 mi NE 3.5 mph - N/A   Clear
9:51 AM 80.1 °F 80.7 °F 59.0 °F 48% 30.08 in 10.0 mi Calm Calm - N/A   Clear
10:51 AM 82.0 °F 83.0 °F 62.1 °F 51% 30.07 in 10.0 mi Calm Calm - N/A   Scattered Clouds
11:51 AM 82.9 °F 82.8 °F 59.0 °F 44% 30.06 in 10.0 mi Variable 3.5 mph - N/A   Overcast
12:51 PM 82.0 °F 83.0 °F 62.1 °F 51% 30.04 in 10.0 mi South 8.1 mph - N/A   Overcast
1:51 PM 84.0 °F 84.4 °F 61.0 °F 46% 30.02 in 10.0 mi South 5.8 mph - N/A   Overcast
2:51 PM 82.9 °F 83.3 °F 61.0 °F 47% 30.01 in 10.0 mi South 8.1 mph - N/A   Overcast
3:51 PM 84.9 °F 85.4 °F 62.1 °F 46% 29.99 in 10.0 mi SE 6.9 mph - N/A   Overcast
4:51 PM 82.0 °F 83.1 °F 63.0 °F 52% 29.98 in 10.0 mi South 8.1 mph - N/A   Mostly Cloudy
5:51 PM 81.0 °F 82.2 °F 63.0 °F 54% 29.98 in 10.0 mi South 8.1 mph - N/A   Overcast
6:51 PM 80.1 °F 81.5 °F 63.0 °F 56% 29.99 in 10.0 mi Calm Calm - N/A   Overcast
7:51 PM 78.1 °F - 59.0 °F 52% 30.00 in 10.0 mi South 4.6 mph - N/A   Overcast
8:51 PM 75.9 °F - 66.9 °F 74% 30.00 in 10.0 mi SSE 4.6 mph - N/A   Overcast
9:51 PM 75.0 °F - 68.0 °F 79% 30.01 in 10.0 mi South 3.5 mph - N/A   Overcast
10:51 PM 73.9 °F - 66.0 °F 76% 30.02 in 10.0 mi East 3.5 mph - N/A   Mostly Cloudy
11:51 PM 73.0 °F - 64.9 °F 76% 30.04 in 10.0 mi ENE 8.1 mph - N/A   Overcast